This is the latest recevied weather packets stored in our database for station/object KB3AWQ. If no packets are shown the sender has not sent any weather packets the latest 10 day(s).
| Time | Temp. | Humidity | Pressure | Rain* | Wind** | Luminosity | Snow |
|---|---|---|---|---|---|---|---|
| 1788565467 | 24.44° C | 92% | 1012.6 hPa | 0 mm | - | 1 W/m² | - |
| 1788565167 | 25° C | 92% | 1012.5 hPa | 0 mm | - | 2 W/m² | - |
| 1788564866 | 25° C | 91% | 1012.5 hPa | 0 mm | - | 3 W/m² | - |
| 1788564567 | 25° C | 90% | 1012.3 hPa | 0 mm | - | 4 W/m² | - |
| 1788564266 | 25° C | 89% | 1012.2 hPa | 0 mm | - | 6 W/m² | - |
| 1788563967 | 25° C | 89% | 1012.3 hPa | 0 mm | - | 9 W/m² | - |
| 1788563666 | 25.56° C | 89% | 1012.4 hPa | 0 mm | - | 11 W/m² | - |
| 1788563366 | 25.56° C | 89% | 1012.4 hPa | 0 mm | - | 13 W/m² | - |
| 1788563067 | 26.11° C | 87% | 1012.4 hPa | 0 mm | - | 16 W/m² | - |
| 1788562767 | 26.11° C | 86% | 1012.4 hPa | 0 mm | - | 18 W/m² | - |
| 1788562466 | 26.11° C | 84% | 1012.5 hPa | 0 mm | - | 21 W/m² | - |
| 1788562167 | 26.67° C | 86% | 1012.4 hPa | 0 mm | - | 29 W/m² | - |
| 1788561867 | 26.67° C | 85% | 1012.5 hPa | 0 mm | - | 42 W/m² | - |
| 1788561567 | 26.67° C | 83% | 1012.5 hPa | 0 mm | - | 44 W/m² | - |
| 1788561266 | 26.67° C | 83% | 1012.6 hPa | 0 mm | - | 38 W/m² | - |
| 1788560966 | 26.67° C | 83% | 1012.6 hPa | 0 mm | - | 38 W/m² | - |
| 1788560666 | 26.67° C | 84% | 1012.5 hPa | 0 mm | - | 56 W/m² | - |
| 1788560366 | 26.67° C | 82% | 1012.5 hPa | 0 mm | - | 83 W/m² | - |
| 1788560066 | 26.67° C | 81% | 1012.4 hPa | 0 mm | - | 87 W/m² | - |
| 1788559767 | 26.67° C | 81% | 1012.4 hPa | 0 mm | - | 83 W/m² | - |
| 1788559467 | 27.22° C | 81% | 1012.4 hPa | 0 mm | - | 78 W/m² | - |
| 1788559166 | 27.22° C | 80% | 1012.5 hPa | 0 mm | - | 105 W/m² | - |
| 1788558866 | 27.22° C | 78% | 1012.6 hPa | 0 mm | - | 100 W/m² | - |
| 1788558568 | 27.22° C | 78% | 1012.6 hPa | 0 mm | - | 113 W/m² | - |
| 1788558266 | 27.22° C | 79% | 1012.5 hPa | 0 mm | - | 119 W/m² | - |
* Rain latest hour (hover to see other rain measurements)
** Current wind speed in m/s (hover to see current wind gust speed)